Year,Month,Day,Hour,Minute,Value (Times are PST for windgust in km/hr)
2018,12,19,00,00,16.10
2018,12,19,00,01,17.70
2018,12,19,00,02,8.10
2018,12,19,00,03,9.60
2018,12,19,00,04,14.50
2018,12,19,00,05,17.70
2018,12,19,00,06,9.60
2018,12,19,00,07,9.60
2018,12,19,00,08,9.60
2018,12,19,00,09,8.10
2018,12,19,00,10,11.30
2018,12,19,00,11,8.10
2018,12,19,00,12,9.60
2018,12,19,00,13,8.10
2018,12,19,00,14,9.60
2018,12,19,00,15,6.40
2018,12,19,00,16,9.60
2018,12,19,00,17,9.60
2018,12,19,00,18,16.10
2018,12,19,00,19,16.10
2018,12,19,00,20,14.50
2018,12,19,00,21,11.30
2018,12,19,00,22,16.10
2018,12,19,00,23,16.10
2018,12,19,00,24,12.90
2018,12,19,00,25,11.30
2018,12,19,00,26,9.60
2018,12,19,00,27,9.60
2018,12,19,00,28,11.30
2018,12,19,00,29,12.90
2018,12,19,00,30,22.50
2018,12,19,00,31,17.70
2018,12,19,00,32,24.20
2018,12,19,00,33,24.20
2018,12,19,00,34,17.70
2018,12,19,00,35,25.70
2018,12,19,00,36,27.40
2018,12,19,00,37,16.10
2018,12,19,00,38,24.20
2018,12,19,00,39,20.90
2018,12,19,00,40,14.50
2018,12,19,00,41,9.60
2018,12,19,00,42,12.90
2018,12,19,00,43,20.90
2018,12,19,00,44,19.30
2018,12,19,00,45,19.30
2018,12,19,00,46,16.10
2018,12,19,00,47,20.90
2018,12,19,00,48,22.50
2018,12,19,00,49,22.50
2018,12,19,00,50,17.70
2018,12,19,00,51,14.50
2018,12,19,00,52,22.50
2018,12,19,00,53,25.70
2018,12,19,00,54,16.10
2018,12,19,00,55,11.30
2018,12,19,00,56,17.70
2018,12,19,00,57,11.30
2018,12,19,00,58,17.70
2018,12,19,00,59,19.30
2018,12,19,01,00,17.70
2018,12,19,01,01,14.50
2018,12,19,01,02,11.30
2018,12,19,01,03,4.80
2018,12,19,01,04,8.10
2018,12,19,01,05,1.60
2018,12,19,01,06,14.50
2018,12,19,01,07,3.20
2018,12,19,01,10,6.40
2018,12,19,01,11,4.80
2018,12,19,01,12,6.40
2018,12,19,01,13,6.40
2018,12,19,01,14,6.40
2018,12,19,01,15,11.30
2018,12,19,01,16,11.30
2018,12,19,01,17,16.10
2018,12,19,01,18,8.10
2018,12,19,01,19,6.40
2018,12,19,01,20,8.10
2018,12,19,01,21,8.10
2018,12,19,01,22,14.50
2018,12,19,01,23,6.40
2018,12,19,01,24,4.80
2018,12,19,01,25,14.50
2018,12,19,01,26,14.50
2018,12,19,01,27,6.40
2018,12,19,01,29,4.80
2018,12,19,01,30,4.80
2018,12,19,01,31,8.10
2018,12,19,01,32,3.20
2018,12,19,01,34,17.70
2018,12,19,01,35,16.10
2018,12,19,01,36,16.10
2018,12,19,01,37,14.50
2018,12,19,01,38,16.10
2018,12,19,01,39,22.50
2018,12,19,01,40,27.40
2018,12,19,01,41,16.10
2018,12,19,01,42,8.10
2018,12,19,01,43,6.40
2018,12,19,01,45,9.60
2018,12,19,01,46,9.60
2018,12,19,01,47,12.90
2018,12,19,01,48,11.30
2018,12,19,01,49,9.60
2018,12,19,01,50,9.60
2018,12,19,01,51,9.60
2018,12,19,01,52,16.10
2018,12,19,01,53,19.30
2018,12,19,01,54,19.30
2018,12,19,01,55,19.30
2018,12,19,01,56,19.30
2018,12,19,01,57,11.30
2018,12,19,01,58,9.60
2018,12,19,01,59,22.50
2018,12,19,02,00,11.30
2018,12,19,02,01,11.30
2018,12,19,02,02,8.10
2018,12,19,02,03,22.50
2018,12,19,02,04,19.30
2018,12,19,02,05,8.10
2018,12,19,02,06,19.30
2018,12,19,02,07,9.60
2018,12,19,02,08,3.20
2018,12,19,02,10,3.20
2018,12,19,02,11,4.80
2018,12,19,02,13,8.10
2018,12,19,02,14,6.40
2018,12,19,02,15,3.20
2018,12,19,02,21,4.80
2018,12,19,02,22,6.40
2018,12,19,02,23,6.40
2018,12,19,02,24,4.80
2018,12,19,02,25,6.40
2018,12,19,02,26,4.80
2018,12,19,02,27,3.20
2018,12,19,02,32,4.80
2018,12,19,02,33,4.80
2018,12,19,02,34,4.80
2018,12,19,02,35,3.20
2018,12,19,02,41,4.80
2018,12,19,02,42,4.80
2018,12,19,02,43,1.60
2018,12,19,02,45,1.60
2018,12,19,02,46,3.20
2018,12,19,02,47,4.80
2018,12,19,02,48,4.80
2018,12,19,02,58,3.20
2018,12,19,02,59,3.20
2018,12,19,03,04,9.60
2018,12,19,03,05,6.40
2018,12,19,03,07,6.40
2018,12,19,03,08,6.40
2018,12,19,03,11,6.40
2018,12,19,03,12,3.20
2018,12,19,03,13,4.80
2018,12,19,03,15,6.40
2018,12,19,03,16,3.20
2018,12,19,03,17,4.80
2018,12,19,03,18,8.10
2018,12,19,03,19,9.60
2018,12,19,03,20,16.10
2018,12,19,03,21,11.30
2018,12,19,03,22,11.30
2018,12,19,03,23,9.60
2018,12,19,03,24,9.60
2018,12,19,03,25,6.40
2018,12,19,03,27,3.20
2018,12,19,03,31,1.60
2018,12,19,03,32,1.60
2018,12,19,03,33,4.80
2018,12,19,03,34,8.10
2018,12,19,03,35,8.10
2018,12,19,03,36,4.80
2018,12,19,03,37,12.90
2018,12,19,03,38,4.80
2018,12,19,03,40,11.30
2018,12,19,03,41,8.10
2018,12,19,03,42,9.60
2018,12,19,03,43,17.70
2018,12,19,03,44,17.70
2018,12,19,03,45,16.10
2018,12,19,03,46,14.50
2018,12,19,03,47,9.60
2018,12,19,03,48,3.20
2018,12,19,03,49,11.30
2018,12,19,03,50,11.30
2018,12,19,03,51,6.40
2018,12,19,03,52,6.40
2018,12,19,03,53,11.30
2018,12,19,03,54,8.10
2018,12,19,03,55,6.40
2018,12,19,03,56,11.30
2018,12,19,03,57,6.40
2018,12,19,03,58,4.80
2018,12,19,03,59,11.30
2018,12,19,04,00,11.30
2018,12,19,04,01,6.40
2018,12,19,04,02,3.20
2018,12,19,04,03,3.20
2018,12,19,04,05,8.10
2018,12,19,04,06,6.40
2018,12,19,04,07,6.40
2018,12,19,04,08,4.80
2018,12,19,04,09,3.20
2018,12,19,04,13,8.10
2018,12,19,04,14,8.10
2018,12,19,04,15,3.20
2018,12,19,04,17,9.60
2018,12,19,04,18,9.60
2018,12,19,04,19,6.40
2018,12,19,04,20,3.20
2018,12,19,04,21,6.40
2018,12,19,04,22,9.60
2018,12,19,04,23,8.10
2018,12,19,04,24,11.30
2018,12,19,04,25,8.10
2018,12,19,04,26,9.60
2018,12,19,04,27,12.90
2018,12,19,04,28,8.10
2018,12,19,04,29,11.30
2018,12,19,04,30,11.30
2018,12,19,04,31,19.30
2018,12,19,04,32,20.90
2018,12,19,04,33,8.10
2018,12,19,04,34,9.60
2018,12,19,04,35,11.30
2018,12,19,04,36,11.30
2018,12,19,04,37,9.60
2018,12,19,04,38,8.10
2018,12,19,04,39,9.60
2018,12,19,04,40,8.10
2018,12,19,04,41,8.10
2018,12,19,04,42,6.40
2018,12,19,04,43,9.60
2018,12,19,04,44,6.40
2018,12,19,04,45,11.30
2018,12,19,04,46,11.30
2018,12,19,04,47,11.30
2018,12,19,04,48,8.10
2018,12,19,04,49,8.10
2018,12,19,04,50,9.60
2018,12,19,04,51,9.60
2018,12,19,04,52,9.60
2018,12,19,04,53,8.10
2018,12,19,04,54,4.80
2018,12,19,04,55,6.40
2018,12,19,04,56,8.10
2018,12,19,04,57,6.40
2018,12,19,04,58,6.40
2018,12,19,04,59,6.40
2018,12,19,05,00,9.60
2018,12,19,05,01,11.30
2018,12,19,05,02,8.10
2018,12,19,05,03,9.60
2018,12,19,05,04,16.10
2018,12,19,05,05,16.10
2018,12,19,05,06,9.60
2018,12,19,05,07,9.60
2018,12,19,05,08,14.50
2018,12,19,05,09,8.10
2018,12,19,05,10,14.50
2018,12,19,05,11,14.50
2018,12,19,05,12,16.10
2018,12,19,05,13,11.30
2018,12,19,05,14,9.60
2018,12,19,05,15,11.30
2018,12,19,05,16,8.10
2018,12,19,05,17,8.10
2018,12,19,05,18,11.30
2018,12,19,05,19,9.60
2018,12,19,05,20,11.30
2018,12,19,05,21,12.90
2018,12,19,05,22,11.30
2018,12,19,05,23,11.30
2018,12,19,05,24,9.60
2018,12,19,05,25,8.10
2018,12,19,05,26,6.40
2018,12,19,05,27,3.20
2018,12,19,05,28,4.80
2018,12,19,05,29,6.40
2018,12,19,05,30,6.40
2018,12,19,05,31,4.80
2018,12,19,05,33,4.80
2018,12,19,05,34,4.80
2018,12,19,05,35,8.10
2018,12,19,05,36,4.80
2018,12,19,05,37,4.80
2018,12,19,05,38,4.80
2018,12,19,05,39,4.80
2018,12,19,05,40,6.40
2018,12,19,05,41,8.10
2018,12,19,05,42,8.10
2018,12,19,05,43,9.60
2018,12,19,05,44,6.40
2018,12,19,05,45,6.40
2018,12,19,05,46,8.10
2018,12,19,05,47,8.10
2018,12,19,05,48,4.80
2018,12,19,05,49,4.80
2018,12,19,05,50,4.80
2018,12,19,05,51,3.20
2018,12,19,05,53,1.60
2018,12,19,05,54,9.60
2018,12,19,05,55,11.30
2018,12,19,05,56,4.80
2018,12,19,05,57,3.20
2018,12,19,05,58,4.80
2018,12,19,05,59,6.40
2018,12,19,06,00,6.40
2018,12,19,06,01,6.40
2018,12,19,06,02,6.40
2018,12,19,06,03,9.60
2018,12,19,06,04,16.10
2018,12,19,06,05,16.10
2018,12,19,06,06,16.10
2018,12,19,06,07,17.70
2018,12,19,06,08,16.10
2018,12,19,06,09,9.60
2018,12,19,06,10,17.70
2018,12,19,06,11,14.50
2018,12,19,06,12,17.70
2018,12,19,06,13,16.10
2018,12,19,06,14,17.70
2018,12,19,06,15,12.90
2018,12,19,06,16,17.70
2018,12,19,06,17,19.30
2018,12,19,06,18,16.10
2018,12,19,06,19,16.10
2018,12,19,06,20,14.50
2018,12,19,06,21,11.30
2018,12,19,06,22,14.50
2018,12,19,06,23,9.60
2018,12,19,06,24,6.40
2018,12,19,06,25,3.20
2018,12,19,06,26,4.80
2018,12,19,06,27,8.10
2018,12,19,06,28,6.40
2018,12,19,06,29,4.80
2018,12,19,06,33,8.10
2018,12,19,06,34,6.40
2018,12,19,06,35,4.80
2018,12,19,06,36,3.20
2018,12,19,06,37,3.20
2018,12,19,06,42,3.20
2018,12,19,06,43,1.60
2018,12,19,06,44,3.20
2018,12,19,06,45,4.80
2018,12,19,06,46,3.20
2018,12,19,06,47,4.80
2018,12,19,06,50,1.60
2018,12,19,06,52,1.60
2018,12,19,06,53,1.60
2018,12,19,06,54,1.60
2018,12,19,06,55,3.20
2018,12,19,06,56,6.40
2018,12,19,06,57,9.60
2018,12,19,06,58,8.10
2018,12,19,06,59,6.40
2018,12,19,07,00,6.40
2018,12,19,07,01,6.40
2018,12,19,07,02,6.40
2018,12,19,07,03,4.80
2018,12,19,07,04,4.80
2018,12,19,07,05,4.80
2018,12,19,07,06,8.10
2018,12,19,07,07,6.40
2018,12,19,07,08,4.80
2018,12,19,07,09,4.80
2018,12,19,07,10,4.80
2018,12,19,07,11,4.80
2018,12,19,07,12,3.20
2018,12,19,07,13,6.40
2018,12,19,07,14,6.40
2018,12,19,07,15,8.10
2018,12,19,07,16,4.80
2018,12,19,07,17,4.80
2018,12,19,07,19,4.80
2018,12,19,07,20,4.80
2018,12,19,07,21,4.80
2018,12,19,07,22,3.20
2018,12,19,07,23,3.20
2018,12,19,07,27,4.80
2018,12,19,07,28,6.40
2018,12,19,07,29,6.40
2018,12,19,07,30,6.40
2018,12,19,07,31,4.80
2018,12,19,07,34,4.80
2018,12,19,07,35,6.40
2018,12,19,07,42,4.80
2018,12,19,07,43,4.80
2018,12,19,07,44,1.60
2018,12,19,07,50,3.20
2018,12,19,07,51,3.20
2018,12,19,07,52,3.20
2018,12,19,07,55,1.60
2018,12,19,07,56,3.20
2018,12,19,07,57,1.60
2018,12,19,08,07,4.80
2018,12,19,08,08,1.60
2018,12,19,08,17,4.80
2018,12,19,08,18,4.80
2018,12,19,08,27,3.20
2018,12,19,08,28,4.80
2018,12,19,08,48,1.60
2018,12,19,08,51,3.20
2018,12,19,08,52,4.80
2018,12,19,08,53,3.20
2018,12,19,08,56,4.80
2018,12,19,08,57,3.20
2018,12,19,09,01,1.60
2018,12,19,09,02,4.80
2018,12,19,09,06,6.40
2018,12,19,09,07,4.80
2018,12,19,09,08,6.40
2018,12,19,09,09,6.40
2018,12,19,09,10,4.80
2018,12,19,09,11,4.80
2018,12,19,09,12,4.80
2018,12,19,09,13,6.40
2018,12,19,09,14,1.60
2018,12,19,09,15,4.80
2018,12,19,09,16,3.20
2018,12,19,09,36,3.20
2018,12,19,09,37,3.20
2018,12,19,09,38,3.20
2018,12,19,09,40,8.10
2018,12,19,09,41,8.10
2018,12,19,09,42,4.80
2018,12,19,09,43,4.80
2018,12,19,09,44,4.80
2018,12,19,09,45,4.80
2018,12,19,09,46,4.80
2018,12,19,09,47,4.80
2018,12,19,09,48,6.40
2018,12,19,09,49,4.80
2018,12,19,09,50,3.20
2018,12,19,10,09,3.20
2018,12,19,10,10,4.80
2018,12,19,10,11,6.40
2018,12,19,10,12,6.40
2018,12,19,10,13,8.10
2018,12,19,10,14,8.10
2018,12,19,10,15,4.80
2018,12,19,10,16,4.80
2018,12,19,10,17,3.20
2018,12,19,10,18,4.80
2018,12,19,10,19,4.80
2018,12,19,10,20,4.80
2018,12,19,10,21,6.40
2018,12,19,10,22,6.40
2018,12,19,10,23,3.20
2018,12,19,10,35,1.60
2018,12,19,10,36,6.40
2018,12,19,10,37,6.40
2018,12,19,10,38,4.80
2018,12,19,10,40,4.80
2018,12,19,10,41,3.20
2018,12,19,10,42,3.20
2018,12,19,10,43,1.60
2018,12,19,10,47,3.20
2018,12,19,10,48,3.20
2018,12,19,10,50,8.10
2018,12,19,10,51,8.10
2018,12,19,10,52,4.80
2018,12,19,11,06,1.60
2018,12,19,11,14,4.80
2018,12,19,11,15,6.40
2018,12,19,11,16,4.80
2018,12,19,11,17,1.60
2018,12,19,11,18,1.60
2018,12,19,11,26,4.80
2018,12,19,11,27,4.80
2018,12,19,11,28,6.40
2018,12,19,11,29,4.80
2018,12,19,11,30,3.20
2018,12,19,11,32,3.20
2018,12,19,11,33,3.20
2018,12,19,12,00,1.60
2018,12,19,12,04,3.20
2018,12,19,12,05,6.40
2018,12,19,12,06,4.80
2018,12,19,12,07,1.60
2018,12,19,12,08,3.20
2018,12,19,12,09,1.60
2018,12,19,12,15,4.80
2018,12,19,12,16,6.40
2018,12,19,12,17,6.40
2018,12,19,12,18,4.80
2018,12,19,12,19,1.60
2018,12,19,12,31,1.60
2018,12,19,12,32,1.60
2018,12,19,12,34,4.80
2018,12,19,12,35,6.40
2018,12,19,12,36,8.10
2018,12,19,12,37,9.60
2018,12,19,12,38,8.10
2018,12,19,12,39,6.40
2018,12,19,12,40,4.80
2018,12,19,12,41,4.80
2018,12,19,12,42,4.80
2018,12,19,12,43,4.80
2018,12,19,12,44,6.40
2018,12,19,12,45,4.80
2018,12,19,12,46,3.20
2018,12,19,12,47,3.20
2018,12,19,12,49,1.60
2018,12,19,12,50,3.20
2018,12,19,12,51,4.80
2018,12,19,12,52,4.80
2018,12,19,12,53,6.40
2018,12,19,12,54,6.40
2018,12,19,12,55,4.80
2018,12,19,12,56,3.20
2018,12,19,12,59,4.80
2018,12,19,13,00,4.80
2018,12,19,13,01,4.80
2018,12,19,13,02,4.80
2018,12,19,13,03,8.10
2018,12,19,13,04,8.10
2018,12,19,13,05,4.80
2018,12,19,13,06,4.80
2018,12,19,13,07,4.80
2018,12,19,13,08,8.10
2018,12,19,13,09,6.40
2018,12,19,13,10,6.40
2018,12,19,13,11,4.80
2018,12,19,13,12,1.60
2018,12,19,13,13,1.60
2018,12,19,13,14,6.40
2018,12,19,13,15,4.80
2018,12,19,13,16,4.80
2018,12,19,13,17,4.80
2018,12,19,13,18,4.80
2018,12,19,13,19,4.80
2018,12,19,13,20,4.80
2018,12,19,13,21,4.80
2018,12,19,13,30,1.60
2018,12,19,13,34,1.60
2018,12,19,13,35,3.20
2018,12,19,13,36,1.60
2018,12,19,13,43,3.20
2018,12,19,13,44,4.80
2018,12,19,13,45,4.80
2018,12,19,13,46,3.20
2018,12,19,13,47,3.20
2018,12,19,13,49,3.20
2018,12,19,13,50,1.60
2018,12,19,15,47,3.20
2018,12,19,15,48,3.20
2018,12,19,15,49,3.20
2018,12,19,15,50,3.20
2018,12,19,16,16,1.60
2018,12,19,16,17,1.60
2018,12,19,16,44,1.60
2018,12,19,17,00,1.60
2018,12,19,17,11,1.60
2018,12,19,17,12,3.20
2018,12,19,17,13,3.20
2018,12,19,17,14,3.20
2018,12,19,17,24,1.60
2018,12,19,18,06,3.20
2018,12,19,18,07,3.20
2018,12,19,18,16,1.60
2018,12,19,18,18,1.60
2018,12,19,18,19,3.20
2018,12,19,18,20,3.20
2018,12,19,18,30,1.60
2018,12,19,18,31,1.60
2018,12,19,18,52,1.60
2018,12,19,18,53,3.20
2018,12,19,18,54,1.60
2018,12,19,18,56,3.20
2018,12,19,18,57,1.60
2018,12,19,19,04,1.60
2018,12,19,19,15,3.20
2018,12,19,19,16,1.60
2018,12,19,19,24,1.60
2018,12,19,19,27,3.20
2018,12,19,19,28,3.20
2018,12,19,19,29,3.20
2018,12,19,19,30,3.20
2018,12,19,19,34,3.20
2018,12,19,19,36,3.20
2018,12,19,19,37,3.20
2018,12,19,19,42,3.20
2018,12,19,19,43,1.60
2018,12,19,19,49,1.60
2018,12,19,19,50,3.20
2018,12,19,19,51,1.60
2018,12,19,19,53,3.20
2018,12,19,19,55,4.80
2018,12,19,19,57,1.60
2018,12,19,20,04,3.20
2018,12,19,20,05,4.80
2018,12,19,20,06,3.20
2018,12,19,20,14,4.80
2018,12,19,20,17,4.80
2018,12,19,20,19,3.20
2018,12,19,20,20,3.20
2018,12,19,20,22,3.20
2018,12,19,20,23,1.60
2018,12,19,20,26,1.60
2018,12,19,20,27,3.20
2018,12,19,20,28,3.20
2018,12,19,20,29,9.60
2018,12,19,20,30,3.20
2018,12,19,20,32,6.40
2018,12,19,20,33,8.10
2018,12,19,20,34,4.80
2018,12,19,20,35,4.80
2018,12,19,20,44,1.60
2018,12,19,20,47,1.60
2018,12,19,20,48,3.20
2018,12,19,20,51,1.60
2018,12,19,20,55,1.60
2018,12,19,20,56,1.60
2018,12,19,20,57,6.40
2018,12,19,20,58,3.20
2018,12,19,20,59,1.60
2018,12,19,21,00,4.80
2018,12,19,21,01,3.20
2018,12,19,21,02,1.60
2018,12,19,21,03,6.40
2018,12,19,21,04,1.60
2018,12,19,21,05,6.40
2018,12,19,21,06,6.40
2018,12,19,21,07,3.20
2018,12,19,21,08,6.40
2018,12,19,21,09,3.20
2018,12,19,21,10,4.80
2018,12,19,21,11,1.60
2018,12,19,21,12,1.60
2018,12,19,21,13,4.80
2018,12,19,21,15,3.20
2018,12,19,21,16,1.60
2018,12,19,21,17,1.60
2018,12,19,21,18,3.20
2018,12,19,21,21,1.60
2018,12,19,21,22,3.20
2018,12,19,21,23,1.60
2018,12,19,21,24,1.60
2018,12,19,21,32,1.60
2018,12,19,21,33,1.60
2018,12,19,21,34,1.60
2018,12,19,21,35,1.60
2018,12,19,21,37,6.40
2018,12,19,21,38,6.40
2018,12,19,21,39,4.80
2018,12,19,21,41,1.60
2018,12,19,21,45,3.20
2018,12,19,21,46,6.40
2018,12,19,21,50,4.80
2018,12,19,21,51,3.20
2018,12,19,21,52,4.80
2018,12,19,21,53,4.80
2018,12,19,21,54,4.80
2018,12,19,21,56,4.80
2018,12,19,21,57,4.80
2018,12,19,21,58,8.10
2018,12,19,21,59,8.10
2018,12,19,22,00,6.40
2018,12,19,22,01,4.80
2018,12,19,22,02,4.80
2018,12,19,22,03,4.80
2018,12,19,22,04,6.40
2018,12,19,22,05,3.20
2018,12,19,22,06,4.80
2018,12,19,22,08,1.60
2018,12,19,22,09,3.20
2018,12,19,22,10,3.20
2018,12,19,22,11,3.20
2018,12,19,22,12,6.40
2018,12,19,22,13,3.20
2018,12,19,22,14,8.10
2018,12,19,22,15,8.10
2018,12,19,22,16,1.60
2018,12,19,22,17,4.80
2018,12,19,22,18,4.80
2018,12,19,22,19,6.40
2018,12,19,22,20,9.60
2018,12,19,22,21,4.80
2018,12,19,22,22,6.40
2018,12,19,22,23,1.60
2018,12,19,22,24,6.40
2018,12,19,22,25,11.30
2018,12,19,22,26,6.40
2018,12,19,22,27,6.40
2018,12,19,22,28,4.80
2018,12,19,22,29,4.80
2018,12,19,22,30,9.60
2018,12,19,22,31,4.80
2018,12,19,22,32,11.30
2018,12,19,22,33,8.10
2018,12,19,22,34,8.10
2018,12,19,22,35,4.80
2018,12,19,22,36,1.60
2018,12,19,22,37,6.40
2018,12,19,22,38,1.60
2018,12,19,22,40,4.80
2018,12,19,22,41,6.40
2018,12,19,22,42,4.80
2018,12,19,22,43,4.80
2018,12,19,22,44,1.60
2018,12,19,22,46,1.60
2018,12,19,22,48,4.80
2018,12,19,22,49,3.20
2018,12,19,22,50,3.20
2018,12,19,22,51,3.20
2018,12,19,22,52,4.80
2018,12,19,22,53,3.20
2018,12,19,22,54,1.60
2018,12,19,22,55,3.20
2018,12,19,22,56,4.80
2018,12,19,22,57,3.20
2018,12,19,22,58,6.40
2018,12,19,22,59,1.60
2018,12,19,23,01,6.40
2018,12,19,23,02,3.20
2018,12,19,23,03,1.60
2018,12,19,23,04,4.80
2018,12,19,23,05,3.20
2018,12,19,23,10,1.60
2018,12,19,23,17,4.80
2018,12,19,23,18,3.20
2018,12,19,23,19,1.60
2018,12,19,23,20,1.60
2018,12,19,23,21,8.10
2018,12,19,23,22,1.60
2018,12,19,23,24,4.80
2018,12,19,23,25,4.80
2018,12,19,23,26,6.40
2018,12,19,23,27,4.80
2018,12,19,23,32,1.60
2018,12,19,23,33,4.80
2018,12,19,23,34,4.80
2018,12,19,23,36,4.80
2018,12,19,23,37,1.60
2018,12,19,23,38,1.60
2018,12,19,23,42,1.60
2018,12,19,23,43,1.60
2018,12,19,23,44,3.20
2018,12,19,23,46,1.60
2018,12,19,23,47,1.60
2018,12,19,23,48,1.60
2018,12,19,23,54,3.20
2018,12,19,23,55,1.60
2018,12,19,23,57,1.60
2018,12,19,23,58,6.40
2018,12,19,23,59,1.60
